2023/01/13 00:00:00,23.2, 1.3
2023/01/13 00:10:00,23.2, 1.1
2023/01/13 00:20:00,23.3, 0.7
2023/01/13 00:30:00,23.2, 0.9
2023/01/13 00:40:00,23.2, 1.1
2023/01/13 00:50:00,23.3, 0.7
2023/01/13 01:00:00,23.3, 1.0
2023/01/13 01:10:00,23.3, 0.6
2023/01/13 01:20:00,23.3, 0.7
2023/01/13 01:30:00,23.3, 0.7
2023/01/13 01:40:00,23.4, 0.7
2023/01/13 01:50:00,23.4, 0.7
2023/01/13 02:00:00,23.5, 0.8
2023/01/13 02:10:00,23.5, 1.0
2023/01/13 02:20:00,23.3, 0.9
2023/01/13 02:30:00,23.3, 0.9
2023/01/13 02:40:00,23.2, 1.1
2023/01/13 02:50:00,23.2, 0.9
2023/01/13 03:00:00,23.2, 0.8
2023/01/13 03:10:00,23.1, 1.0
2023/01/13 03:20:00,23.1, 1.1
2023/01/13 03:30:00,23.1, 1.3
2023/01/13 03:40:00,23.1, 1.6
2023/01/13 03:50:00,23.3, 1.4
2023/01/13 04:00:00,23.2, 1.7
2023/01/13 04:10:00,22.9, 1.9
2023/01/13 04:20:00,22.8, 2.0
2023/01/13 04:30:00,22.9, 2.3
2023/01/13 04:40:00,23.4, 2.2
2023/01/13 04:50:00,23.1, 2.4
2023/01/13 05:00:00,22.7, 2.6
2023/01/13 05:10:00,22.5, 2.3
2023/01/13 05:20:00,22.6, 2.4
2023/01/13 05:30:00,22.5, 2.3
2023/01/13 05:40:00,22.4, 2.3
2023/01/13 05:50:00,22.4, 2.1
2023/01/13 06:00:00,22.4, 2.2
2023/01/13 06:10:00,22.4, 2.3
2023/01/13 06:20:00,22.4, 2.2
2023/01/13 06:30:00,22.3, 2.2
2023/01/13 06:40:00,22.2, 2.0
2023/01/13 06:50:00,22.1, 2.2
2023/01/13 07:00:00,22.1, 1.9
2023/01/13 07:10:00,22.2, 2.0
2023/01/13 07:20:00,22.1, 2.2
2023/01/13 07:30:00,22.0, 2.0
2023/01/13 07:40:00,22.0, 2.1
2023/01/13 07:50:00,21.8, 2.2
2023/01/13 08:00:00,21.7, 2.6
2023/01/13 08:10:00,21.6, 2.4
2023/01/13 08:20:00,21.5, 2.3
2023/01/13 08:30:00,21.5, 3.0
2023/01/13 08:40:00,21.6, 2.8
2023/01/13 08:50:00,22.0, 2.7
2023/01/13 09:00:00,21.9, 2.9
2023/01/13 09:10:00,22.0, 3.1
2023/01/13 09:20:00,21.9, 3.8
2023/01/13 09:30:00,21.8, 4.0
2023/01/13 09:40:00,21.9, 4.2
2023/01/13 09:50:00,21.9, 4.5
2023/01/13 10:00:00,21.6, 5.0
2023/01/13 10:10:00,21.7, 4.9
2023/01/13 10:20:00,21.6, 5.0
2023/01/13 10:30:00,21.6, 4.9
2023/01/13 10:40:00,21.5, 5.0
2023/01/13 10:50:00,21.4, 4.6
2023/01/13 11:00:00,21.4, 4.5
2023/01/13 11:10:00,21.2, 4.8
2023/01/13 11:20:00,21.3, 4.7
2023/01/13 11:30:00,21.2, 4.5
2023/01/13 11:40:00,21.2, 4.9
2023/01/13 11:50:00,21.1, 4.8
2023/01/13 12:00:00,21.1, 5.3
2023/01/13 12:10:00,21.1, 5.1
2023/01/13 12:20:00,21.0, 4.9
2023/01/13 12:30:00,21.0, 4.6
2023/01/13 12:40:00,20.9, 4.8
2023/01/13 12:50:00,20.8, 4.7
2023/01/13 13:00:00,20.7, 4.7
2023/01/13 13:10:00,20.8, 4.5
2023/01/13 13:20:00,20.7, 4.2
2023/01/13 13:30:00,20.8, 3.9
2023/01/13 13:40:00,20.9, 3.3
2023/01/13 13:50:00,20.9, 3.7
2023/01/13 14:00:00,20.9, 3.3
2023/01/13 14:10:00,20.8, 3.9
2023/01/13 14:20:00,20.8, 4.2
2023/01/13 14:30:00,20.8, 4.4
2023/01/13 14:40:00,20.5, 4.5
2023/01/13 14:50:00,20.4, 4.3
2023/01/13 15:00:00,20.4, 4.4
2023/01/13 15:10:00,20.4, 4.6
2023/01/13 15:20:00,20.4, 4.7
2023/01/13 15:30:00,20.2, 5.0
2023/01/13 15:40:00,20.1, 4.9
2023/01/13 15:50:00,20.1, 4.9
2023/01/13 16:00:00,20.3, 5.3
2023/01/13 16:10:00,20.1, 4.8
2023/01/13 16:20:00,19.9, 4.9
2023/01/13 16:30:00,19.9, 5.2
2023/01/13 16:40:00,19.9, 5.0
2023/01/13 16:50:00,20.0, 4.9
2023/01/13 17:00:00,19.9, 5.1
2023/01/13 17:10:00,20.7, 5.0
2023/01/13 17:20:00,20.4, 5.0
2023/01/13 17:30:00,20.2, 5.1
2023/01/13 17:40:00,20.0, 4.6
2023/01/13 17:50:00,19.6, 4.7
2023/01/13 18:00:00,19.5, 4.6
2023/01/13 18:10:00,19.4, 4.2
2023/01/13 18:20:00,19.4, 4.4
2023/01/13 18:30:00,19.4, 3.9
2023/01/13 18:40:00,19.4, 3.7
2023/01/13 18:50:00,19.4, 3.9
2023/01/13 19:00:00,19.5, 3.9
2023/01/13 19:10:00,19.4, 3.6
2023/01/13 19:20:00,19.1, 3.2
2023/01/13 19:30:00,19.3, 3.5
2023/01/13 19:40:00,19.6, 3.7
2023/01/13 19:50:00,19.9, 3.3
2023/01/13 20:00:00,19.5, 3.3
2023/01/13 20:10:00,19.3, 3.8
2023/01/13 20:20:00,19.2, 3.6
2023/01/13 20:30:00,19.2, 3.9
2023/01/13 20:40:00,19.0, 3.5
2023/01/13 20:50:00,18.7, 3.6
2023/01/13 21:00:00,18.7, 3.5
2023/01/13 21:10:00,18.5, 3.4
2023/01/13 21:20:00,18.4, 3.2
2023/01/13 21:30:00,18.4, 3.1
2023/01/13 21:40:00,18.6, 3.1
2023/01/13 21:50:00,19.1, 3.2
2023/01/13 22:00:00,18.9, 3.2
2023/01/13 22:10:00,18.6, 3.4
2023/01/13 22:20:00,18.2, 3.4
2023/01/13 22:30:00,18.0, 3.5
2023/01/13 22:40:00,18.0, 3.5
2023/01/13 22:50:00,17.8, 3.5
2023/01/13 23:00:00,17.8, 3.7
2023/01/13 23:10:00,17.8, 3.7
2023/01/13 23:20:00,17.8, 3.5
2023/01/13 23:30:00,17.9, 3.6
2023/01/13 23:40:00,17.8, 3.9
2023/01/13 23:50:00,17.8, 3.8
